sat.trackr.live / text

‹ back to catalog

STARLINK-11627 [DTC]

NORAD 63107 · 2025-039D

PAYLOAD ACTIVE UNKNOWN

§ Identity

Operator
Country
US
Launch date
2025-02-27
Launch site
AFETR
Launch vehicle
Mass (kg)
RCS (m²)

Purposes: comms

External: N2YO · Heavens-Above · Gunter

§ Orbital elements

Epoch: 2026-09-20T08:43:56.496576Z

Period
91.67 min
Inclination
43.0002°
Eccentricity
0.0000700
Mean motion
15.70897379 rev/d
Perigee alt
355.9 km
Apogee alt
356.8 km
Semi-major
6,734.5 km
B*
1.7326e-3
RAAN
143.3257°
Arg perigee
339.5298°
Mean anomaly
20.5542°
Rev number
9,023

§ Raw data

STARLINK-11627 [DTC]1 63107U 25039D   26263.36384834  .00228641  00000+0  17326-2 0  99972 63107  43.0002 143.3257 0000700 339.5298  20.5542 15.70897379 90237

JSON: /api/v1/satellites/63107 · /tle

For live sub-satellite position, see the globe view (requires WebGL).

§ Visibility from observer

Set your observer location to see the next 7 days of passes ≥ 10°. The values pass through the URL so the page stays shareable.

No JS? Fill the form by hand. The geolocation button needs JavaScript.